Regional Weather Roundup
Issued by NWS

Home | Current Version | Previous Version | Text Only | Print | Product List | Glossary Off
Versions: 1 2 3 4 5 6 7 8 9 10 11 12 13 14 15 16 17 18 19 20 21 22 23 24 25 26 27

000
ASUS45 KTFX 182210
RWRMT
MONTANA REGIONAL WEATHER ROUNDUP
NATIONAL WEATHER SERVICE GREAT FALLS MT
300 PM MST SAT FEB 18 2017

NOTE: "FAIR" INDICATES FEW OR NO CLOUDS BELOW 12000 FEET WITH NO
SIGNIFICANT WEATHER AND/OR OBSTRUCTIONS TO VISIBILITY.

MTZ001>007-043-182300-
WEST OF THE DIVIDE

CITY           SKY/WX    TMP DP  RH WIND       PRES   REMARKS
KALISPELL      CLOUDY    37  31  78 N8        29.41F WCI  31
MISSOULA       PTSUNNY   43  31  62 N3        29.39F
BUTTE          CLOUDY    45  29  53 S15G23    29.45F
MULLAN PASS    SNOW      31  31 100 VRB6      29.34F VSB<1/4 WCI  25
ANACONDA         N/A     52  28  40 S7        29.44F
DEER LODGE       N/A     52  34  50 S9        29.46F
EUREKA           N/A     34  28  80 CALM      29.46S VSB 1
HAMILTON         N/A     55  32  41 SE8       29.38F
LIBBY            N/A     39  34  81 CALM      29.41F
PLAINS           N/A     39  28  65 CALM      29.45
RONAN            N/A     36  29  76 N1        29.50F
$$

MTZ008-052>055-182300-
SOUTHWEST MONTANA

CITY           SKY/WX    TMP DP  RH WIND       PRES   REMARKS
BOZEMAN        SUNNY     45  32  60 N7        29.47F
DILLON         CLOUDY    46  30  53 SE23G29   29.46F
W YELLOWSTONE  MIX PCPN  36  32  87 S6        29.61F WCI  31
ENNIS          PTSUNNY   46  30  53 S26G36    29.56S
THREE FORKS      N/A     54  54 100 S23       29.50F
$$

MTZ009-010-012-014-046-048-049-054-182300-
EAST SLOPES AND CENTRAL MONTANA

CITY           SKY/WX    TMP DP  RH WIND       PRES   REMARKS
CUT BANK       CLOUDY    40  30  67 SE8       29.44S
GREAT FALLS    CLOUDY    53  29  39 NE8       29.42F
MALMSTROM AFB  CLOUDY    53  31  42 NE6       29.42F
HELENA         PTSUNNY   43  32  65 CALM      29.42F
AUGUSTA        PTSUNNY   49  30  47 S18G25    29.40F
BOWMANS CRNR   PTSUNNY   49  29  46 S18       29.39S
CHOTEAU          N/A     46  32  57 NE10      29.43F
CONRAD           N/A     43  38  82 W2        29.51F
POWER            N/A     49  30  47 E10       29.41F
RAYNESFORD     PTSUNNY   56  26  32 SW14      29.43F
ULM            PTSUNNY   56  29  36 MISG      29.41F
$$

MTZ011-013-016-021-045-047-050-051-182300-
NORTH CENTRAL MONTANA

CITY           SKY/WX    TMP DP  RH WIND       PRES   REMARKS
HAVRE          CLOUDY    48  34  58 E18       29.48F
LEWISTOWN      MOSUNNY   57  27  31 SW10      29.47R
N BAR RANCH      N/A     50  27  40 S15G23    29.52R
CHINOOK          N/A     45  34  65 E17G24    29.50F
DENTON           N/A     52  30  43 NE17      29.42S
FORT BENTON      N/A     55  28  35 MISG      29.44F
GEYSER         PTSUNNY   53  29  39 E9        29.44S
GRASS RANGE      N/A     53  29  40 CALM      29.46S
JUDITH GAP     PTSUNNY   48  29  48 S15       29.49R
ROY              N/A     52  31  44 MISG      29.48F
STANFORD       PTSUNNY   54  26  34 NW10      29.44F
WINIFRED         N/A     49  30  48 E18       29.47S
$$

MTZ017>020-022>027-061-062-182300-
NORTHEAST MONTANA

CITY           SKY/WX    TMP DP  RH WIND       PRES   REMARKS
GLASGOW        CLOUDY    40  33  76 E16G24    29.59S
JORDAN           N/A     51  32  48 E12       29.54F
SIDNEY         CLOUDY    40  33  76 N9        29.64R
WOLF POINT     CLOUDY    37  32  82 E7        29.65R WCI  32
PLENTYWOOD       N/A     36  34  93 E9        29.68S WCI  29
POPLAR           N/A     36  32  87 N10       29.65R WCI  28
SCOBEY           N/A     41  28  60 NE7       29.66
$$

MTZ028>42-056>058-182300-
SOUTHCENTRAL AND SOUTHEAST MONTANA

CITY           SKY/WX    TMP DP  RH WIND       PRES   REMARKS
BAKER          MOSUNNY   48  33  56 E8        29.57R
BILLINGS       CLOUDY    52  32  46 NE6       29.51S
LIVINGSTON     CLOUDY    56  28  34 SW15G28   29.48F
MILES CITY     SUNNY     52  30  43 E3        29.56R
BIG TIMBER     MOSUNNY   52  27  37 SE8       29.52S
EKALAKA          N/A     50  29  44 SW10      29.60
FORSYTH          N/A     54  34  47 E8        29.54S
HARLOWTON      CLOUDY    50  30  46 E14       29.49S
LAUREL           N/A     53  30  41 CALM      29.55S
$$

REGIONAL REPORTS...DAKOTAS

CITY           SKY/WX    TMP DP  RH WIND       PRES   REMARKS
WILLISTON      CLOUDY    39  32  76 NE12      29.67F WCI  32
MINOT          CLOUDY    37  32  82 N8        29.71S WCI  31
DICKINSON      CLOUDY    45  31  58 E15       29.59R
BEACH            N/A    N/A N/A N/A MISG        N/A
CROSBY         CLOUDY    34  34 100 E8        29.74S WCI  27
TIOGA          CLOUDY    36  36 100 E10       29.71S WCI  28
WATFORD CITY     N/A     37  32  81 E13G18    29.66R WCI  29
BISMARCK       CLOUDY    39  33  79 E13       29.68F WCI  31
GRAND FORKS    CLOUDY    40  31  70 W6        29.74S
FARGO          MOSUNNY   45  40  82 CALM      29.74F
BUFFALO SD       N/A     60  35  39 W21       29.51R
RAPID CITY     MOSUNNY   68  30  24 W16       29.58S
$$

REGIONAL REPORTS...WYOMING/IDAHO/WASHINGTON

CITY           SKY/WX    TMP DP  RH WIND       PRES   REMARKS
GILLETTE       SUNNY     62  28  27 SW17G30   29.56S
SHERIDAN       MOSUNNY   51  32  48 CALM      29.56R
BUFFALO WY     SUNNY     56  31  38 VRB7      29.56F
CODY           CLOUDY    49  31  49 SE13      29.57S
YELLOWSTONE LA   N/A     33  32  96 VRB5      29.64F
IDAHO FALLS    CLOUDY    46  35  65 S15G22    29.59F
SALMON         CLOUDY    45  34  65 N6        29.45F
BOISE          CLOUDY    48  41  76 E16       29.43F
SPOKANE        LGT RAIN  37  34  89 E3        29.36S FOG
$$

REGIONAL REPORTS...ALBERTA

CITY           SKY/WX    TMP DP  RH WIND       PRES   REMARKS
EDMONTON       PTSUNNY   37  28  70 E12       29.56F WCI  30
CALGARY        LGT SNOW  32  28  86 E7        29.46F WCI  26
LETHBRIDGE     CLOUDY    36  34  93 NE5       29.46F
MEDICINE HAT   PTSUNNY   46  30  53 NE14      29.48F
WATERTON GATE    N/A     36  27  69 SW3         N/A
CARDSTON         N/A     39  28  65 SE2         N/A
MILK RIVER       N/A     43  34  70 E7          N/A
$$

REGIONAL REPORTS...SASKATCHEWAN

CITY           SKY/WX    TMP DP  RH WIND       PRES   REMARKS
SWIFT CURRENT  PTSUNNY   37  32  81 SE15G23   29.60F WCI  28
REGINA         CLOUDY    36  32  87 SE6       29.71S WCI  31
SASKATOON      CLOUDY    41  32  70 SE3       29.70F
CYPRESS HILLS    N/A     39  25  56 SE14G24     N/A  WCI  31
VAL MARIE        N/A     43  32  65 E14         N/A
ROCKGLEN         N/A     41  32  70 E7          N/A
ASSINIBOIA       N/A     37  32  81 E9          N/A  WCI  31
$$




USA.gov is the U.S. government's official web portal to all federal, state and local government web resources and services.